Time,TemperatureF,DewpointF,PressureIn,WindDirection,WindDirectionDegrees,WindSpeedMPH,WindSpeedGustMPH,Humidity,HourlyPrecipIn,Conditions,Clouds,dailyrainin,SoftwareType,DateUTC
2016-07-24 00:01:00,86.5,59.4,29.79,SE,134,6.9,8.0,40,0.00,,,0.00,meteobridge,2016-07-24 05:01:00,
2016-07-24 00:06:00,86.4,59.2,29.79,SE,133,0.9,6.0,40,0.00,,,0.00,meteobridge,2016-07-24 05:06:00,
2016-07-24 00:16:00,86.0,59.5,29.80,SE,134,2.0,4.0,41,0.00,,,0.00,meteobridge,2016-07-24 05:16:00,
2016-07-24 00:21:00,85.8,59.4,29.80,SE,135,4.0,6.0,41,0.00,,,0.00,meteobridge,2016-07-24 05:21:00,
2016-07-24 00:26:00,85.6,59.9,29.80,SE,135,0.0,7.0,42,0.00,,,0.00,meteobridge,2016-07-24 05:26:00,
2016-07-24 00:31:00,85.3,60.3,29.80,SE,133,0.9,9.0,43,0.00,,,0.00,meteobridge,2016-07-24 05:31:00,
2016-07-24 00:36:00,84.9,59.9,29.80,SE,133,4.9,6.0,43,0.00,,,0.00,meteobridge,2016-07-24 05:36:00,
2016-07-24 00:41:00,84.7,60.4,29.80,SE,133,4.0,5.0,44,0.00,,,0.00,meteobridge,2016-07-24 05:41:00,
2016-07-24 00:47:00,84.6,60.3,29.81,SE,133,4.0,4.0,44,0.00,,,0.00,meteobridge,2016-07-24 05:47:00,
2016-07-24 00:52:00,84.4,60.8,29.80,SE,133,0.9,6.0,45,0.00,,,0.00,meteobridge,2016-07-24 05:52:00,
2016-07-24 00:57:00,84.4,60.8,29.80,SE,133,0.9,5.0,45,0.00,,,0.00,meteobridge,2016-07-24 05:57:00,
2016-07-24 01:02:00,84.2,61.2,29.80,SE,133,0.0,4.0,46,0.00,,,0.00,meteobridge,2016-07-24 06:02:00,
2016-07-24 01:07:00,84.0,61.0,29.80,SE,133,4.0,5.0,46,0.00,,,0.00,meteobridge,2016-07-24 06:07:00,
2016-07-24 01:12:00,83.8,60.8,29.80,SE,133,0.0,5.0,46,0.00,,,0.00,meteobridge,2016-07-24 06:12:00,
2016-07-24 01:17:00,83.7,61.3,29.80,SE,133,0.0,5.0,47,0.00,,,0.00,meteobridge,2016-07-24 06:17:00,
2016-07-24 01:22:00,83.5,61.2,29.80,SE,133,4.0,5.0,47,0.00,,,0.00,meteobridge,2016-07-24 06:22:00,
2016-07-24 01:27:00,83.3,61.5,29.80,SE,133,2.0,5.0,48,0.00,,,0.00,meteobridge,2016-07-24 06:27:00,
2016-07-24 01:32:00,83.1,61.3,29.81,SE,133,0.9,6.0,48,0.00,,,0.00,meteobridge,2016-07-24 06:32:00,
2016-07-24 01:37:00,82.9,61.2,29.80,SE,133,0.0,4.0,48,0.00,,,0.00,meteobridge,2016-07-24 06:37:00,
2016-07-24 01:42:00,82.8,61.7,29.80,SE,133,0.0,4.0,49,0.00,,,0.00,meteobridge,2016-07-24 06:42:00,
2016-07-24 01:47:00,82.6,61.5,29.80,SE,133,4.0,5.0,49,0.00,,,0.00,meteobridge,2016-07-24 06:47:00,
2016-07-24 01:52:00,82.4,61.9,29.80,SE,133,4.0,7.0,50,0.00,,,0.00,meteobridge,2016-07-24 06:52:00,
2016-07-24 01:58:00,82.2,61.7,29.80,SE,133,4.9,8.0,50,0.00,,,0.00,meteobridge,2016-07-24 06:58:00,
2016-07-24 02:03:00,82.0,61.5,29.80,SE,131,4.9,5.0,50,0.00,,,0.00,meteobridge,2016-07-24 07:03:00,
2016-07-24 02:08:00,82.0,62.1,29.80,SE,131,0.9,5.0,51,0.00,,,0.00,meteobridge,2016-07-24 07:08:00,
2016-07-24 02:13:00,81.9,61.9,29.80,SE,131,2.0,5.0,51,0.00,,,0.00,meteobridge,2016-07-24 07:13:00,
2016-07-24 02:18:00,81.7,62.4,29.80,SE,132,4.9,5.0,52,0.00,,,0.00,meteobridge,2016-07-24 07:18:00,
2016-07-24 02:28:00,81.3,62.1,29.80,SE,132,4.0,4.0,52,0.00,,,0.00,meteobridge,2016-07-24 07:28:00,
2016-07-24 02:33:00,81.3,62.6,29.80,SE,132,4.0,5.0,53,0.00,,,0.00,meteobridge,2016-07-24 07:33:00,
2016-07-24 02:38:00,81.1,62.4,29.80,SE,132,2.0,5.0,53,0.00,,,0.00,meteobridge,2016-07-24 07:38:00,
2016-07-24 02:43:00,81.0,62.2,29.80,SE,132,0.9,5.0,53,0.00,,,0.00,meteobridge,2016-07-24 07:43:00,
2016-07-24 02:53:00,80.8,62.6,29.80,SE,132,0.9,5.0,54,0.00,,,0.00,meteobridge,2016-07-24 07:53:00,
2016-07-24 02:58:00,80.6,63.0,29.80,SE,132,4.0,5.0,55,0.00,,,0.00,meteobridge,2016-07-24 07:58:00,
2016-07-24 03:03:00,80.4,62.8,29.80,SE,132,0.0,4.0,55,0.00,,,0.00,meteobridge,2016-07-24 08:03:00,
2016-07-24 03:08:00,80.4,62.8,29.80,SE,132,6.0,6.0,55,0.00,,,0.00,meteobridge,2016-07-24 08:08:00,
2016-07-24 03:13:00,80.2,63.1,29.79,SE,134,4.0,6.0,56,0.00,,,0.00,meteobridge,2016-07-24 08:13:00,
2016-07-24 03:18:00,80.1,63.0,29.80,SE,133,2.0,5.0,56,0.00,,,0.00,meteobridge,2016-07-24 08:18:00,
2016-07-24 03:23:00,79.9,62.8,29.79,SE,133,2.0,6.0,56,0.00,,,0.00,meteobridge,2016-07-24 08:23:00,
2016-07-24 03:28:00,79.7,63.1,29.79,SE,132,0.9,7.0,57,0.00,,,0.00,meteobridge,2016-07-24 08:28:00,
2016-07-24 03:33:00,79.5,63.0,29.79,SE,132,2.0,7.0,57,0.00,,,0.00,meteobridge,2016-07-24 08:33:00,
2016-07-24 03:38:00,79.5,63.0,29.78,SE,132,0.9,5.0,57,0.00,,,0.00,meteobridge,2016-07-24 08:38:00,
2016-07-24 03:43:00,79.3,63.3,29.79,SE,134,0.0,4.0,58,0.00,,,0.00,meteobridge,2016-07-24 08:43:00,
2016-07-24 03:48:00,79.3,63.3,29.79,SE,134,0.9,4.0,58,0.00,,,0.00,meteobridge,2016-07-24 08:48:00,
2016-07-24 03:53:00,79.2,63.7,29.79,SE,133,2.0,5.0,59,0.00,,,0.00,meteobridge,2016-07-24 08:53:00,
2016-07-24 03:58:00,79.2,63.7,29.79,SE,134,2.0,5.0,59,0.00,,,0.00,meteobridge,2016-07-24 08:58:00,
2016-07-24 04:04:00,79.2,63.7,29.78,SE,134,0.0,1.0,59,0.00,,,0.00,meteobridge,2016-07-24 09:04:00,
2016-07-24 04:09:00,79.0,63.9,29.79,SE,134,4.0,4.0,60,0.00,,,0.00,meteobridge,2016-07-24 09:09:00,
2016-07-24 04:14:00,79.0,63.9,29.79,SE,134,0.9,6.0,60,0.00,,,0.00,meteobridge,2016-07-24 09:14:00,
2016-07-24 04:19:00,78.8,64.2,29.79,SE,134,0.0,4.0,61,0.00,,,0.00,meteobridge,2016-07-24 09:19:00,
2016-07-24 04:24:00,78.6,64.0,29.78,SE,135,0.0,4.0,61,0.00,,,0.00,meteobridge,2016-07-24 09:24:00,
2016-07-24 04:29:00,78.6,64.0,29.78,SE,135,0.0,0.0,61,0.00,,,0.00,meteobridge,2016-07-24 09:29:00,
2016-07-24 04:34:00,78.6,64.6,29.79,SE,135,0.0,5.0,62,0.00,,,0.00,meteobridge,2016-07-24 09:34:00,